Weather History for Greensboro, NC

Change the Weather History Date:

Sunday, October 3, 2010

  Actual Average Record
Temperature  
Mean Temperature 60 °F 64 °F  
Max Temperature 70 °F 74 °F 91 °F (1954)
Min Temperature 50 °F 54 °F 33 °F (1974)
Degree Days  
Heating Degree Days 5 3  
Month to date heating degree days 9 9  
Since 1 July heating degree days 13 40  
Cooling Degree Days 0 2  
Month to date cooling degree days 2 7  
Year to date cooling degree days 1977 1454  
Growing Degree Days 9 (Base 50)    
Moisture  
Dew Point 46 °F    
Average Humidity 64    
Maximum Humidity 86    
Minimum Humidity 42    
Precipitation  
Precipitation 0.00 in 0.10 in 1.17 in (1988)
Month to date precipitation 0.00 0.30  
Year to date precipitation 37.08 33.28  
Sea Level Pressure  
Sea Level Pressure 29.98 in    
Wind  
Wind Speed 7 mph (NNE)    
Max Wind Speed 16 mph    
Max Gust Speed 20 mph    
Visibility 10 miles    
Events      
T = Trace of Precipitation, MM = Missing Value Source: NWS Daily Summary

Daily Weather History Graph

Daily Weather History Graph

Search for Another Location

Airport:

Trip Planner

Search our weather history database for the weather conditions in past years. The results will help you decide how hot, cold, wet, or windy it might be!

Date:

Astronomy

Oct. 03, 2010 Rise Set
Actual Time 7:16 AM EDT 7:00 PM EDT
Civil Twilight 6:50 AM EDT 7:26 PM EDT
Nautical Twilight 6:21 AM EDT 7:55 PM EDT
Astronomical Twilight 5:51 AM EDT 8:25 PM EDT
Moon 2:19 AM EDT (10/3) 4:16 PM EDT (10/3)
Length of Visible Light 12h 35m
Length of Day
11h 44m
Waning Crescent, 23% of the Moon is Illuminated
Oct 3
Waning Crescent
Oct 7
New
Oct 14
First Quarter
Oct 22
Full
Oct 30
Last Quarter

Hourly Weather History & Observations

Time (EDT) Temp. Dew Point Humidity Pressure Visibility Wind Dir Wind Speed Gust Speed Precip Events Conditions
12:54 AM 55.0 °F 46.0 °F 72% 29.93 in 10.0 mi NNE 3.5 mph - N/A   Clear
1:54 AM 54.0 °F 46.0 °F 75% 29.93 in 10.0 mi NE 4.6 mph - N/A   Clear
2:54 AM 52.0 °F 45.0 °F 77% 29.93 in 10.0 mi ENE 3.5 mph - N/A   Clear
3:54 AM 52.0 °F 46.0 °F 80% 29.93 in 10.0 mi North 4.6 mph - N/A   Partly Cloudy
4:54 AM 51.1 °F 46.0 °F 83% 29.93 in 10.0 mi North 5.8 mph - N/A   Partly Cloudy
5:54 AM 50.0 °F 46.0 °F 86% 29.94 in 10.0 mi North 3.5 mph - N/A   Partly Cloudy
6:54 AM 50.0 °F 45.0 °F 83% 29.95 in 10.0 mi NNE 4.6 mph - N/A   Clear
7:54 AM 50.0 °F 46.0 °F 86% 29.97 in 10.0 mi North 4.6 mph - N/A   Clear
8:54 AM 54.0 °F 48.0 °F 80% 29.99 in 10.0 mi NNE 6.9 mph - N/A   Clear
9:54 AM 60.1 °F 48.9 °F 67% 30.00 in 10.0 mi NE 6.9 mph - N/A   Partly Cloudy
10:54 AM 63.0 °F 46.9 °F 56% 30.00 in 10.0 mi NNE 10.4 mph - N/A   Partly Cloudy
11:54 AM 64.9 °F 46.0 °F 50% 30.00 in 10.0 mi NNE 9.2 mph - N/A   Mostly Cloudy
12:54 PM 66.9 °F 46.0 °F 47% 29.99 in 10.0 mi NNE 8.1 mph - N/A   Mostly Cloudy
1:54 PM 64.9 °F 45.0 °F 48% 29.98 in 10.0 mi NNE 11.5 mph - N/A   Overcast
2:54 PM 68.0 °F 45.0 °F 43% 29.97 in 10.0 mi Variable 5.8 mph - N/A   Mostly Cloudy
3:54 PM 68.0 °F 46.0 °F 45% 29.96 in 10.0 mi North 8.1 mph - N/A   Scattered Clouds
5:54 PM 66.0 °F 46.9 °F 50% 29.98 in 10.0 mi NNE 11.5 mph - N/A   Scattered Clouds
6:54 PM 61.0 °F 48.9 °F 64% 30.00 in 10.0 mi NNE 8.1 mph - N/A   Scattered Clouds
7:54 PM 59.0 °F 48.9 °F 69% 30.01 in 10.0 mi North 6.9 mph - N/A   Scattered Clouds
8:54 PM 59.0 °F 46.9 °F 64% 30.04 in 10.0 mi North 10.4 mph 18.4 mph N/A   Mostly Cloudy
9:54 PM 57.0 °F 46.0 °F 67% 30.05 in 10.0 mi North 5.8 mph - N/A   Scattered Clouds
10:54 PM 55.9 °F 45.0 °F 67% 30.07 in 10.0 mi North 4.6 mph - N/A   Mostly Cloudy
11:54 PM 55.0 °F 44.1 °F 67% 30.07 in 10.0 mi North 6.9 mph - N/A   Mostly Cloudy